Location: Br�ttisellen
(47.4227°N, 8.6287°E)
Time: 17:39:46
(UTC+00:00)

SL-4 R/B - Pass Details

Date: 09 April 2020
Orbit: 428 x 666 km, 51.6° (Epoch: 24 May)

Event Time Altitude Azimuth Distance (km) Brightness Sun altitude
Rises 20:41:52 0° 283° (WNW) 2,394 6.2 -23.7°
Reaches altitude 10° 20:44:02 10° 291° (WNW) 1,532 5.2 -23.9°
Enters shadow 20:46:55 38° 346° (NNW) 681 2.9 -24.3°
